Weather History for Monett, MO

Change the Weather History Date:

Friday, January 4, 2013

  Actual Average (KJLN) Record (KJLN)
Temperature  
Mean Temperature 32 °F 35 °F  
Max Temperature 44 °F 44 °F 69 °F (1997)
Min Temperature 21 °F 25 °F -7 °F (1959)
Degree Days  
Heating Degree Days 32 30  
Month to date heating degree days 120  
Since 1 July heating degree days 1737  
Cooling Degree Days 0 0  
Month to date cooling degree days 0  
Year to date cooling degree days 0  
Moisture  
Dew Point 23 °F    
Average Humidity 68    
Maximum Humidity 100    
Minimum Humidity 43    
Precipitation  
Precipitation 0.00 in 0.07 in 1.70 in (2005)
Month to date precipitation 0.29  
Year to date precipitation 0.29  
Sea Level Pressure  
Sea Level Pressure 30.36 in    
Wind  
Wind Speed 5 mph (SW)    
Max Wind Speed 12 mph    
Max Gust Speed -    
Visibility 10 miles    
Events      
T = Trace of Precipitation, MM = Missing Value Source: NWS Daily Summary

Daily Weather History Graph

Daily Weather History Graph

Search for Another Location

Airport:

Trip Planner

Search our weather history database for the weather conditions in past years. The results will help you decide how hot, cold, wet, or windy it might be!

Date:

Astronomy

Jan. 04, 2013 Rise Set
Actual Time 7:29 AM CST 5:13 PM CST
Civil Twilight 7:00 AM CST 5:41 PM CST
Nautical Twilight 6:28 AM CST 6:14 PM CST
Astronomical Twilight 5:56 AM CST 6:45 PM CST
Moon No Moon Rise 11:24 AM CST (1/4)
Length of Visible Light 10h 41m
Length of Day
9h 43m
Waning Gibbous, 55% of the Moon is Illuminated
Jan 4
Waning Gibbous
Jan 4
Last Quarter
Jan 11
New
Jan 18
First Quarter
Jan 26
Full

Hourly Weather History & Observations

Time (CST) Temp. Windchill Dew Point Humidity Pressure Visibility Wind Dir Wind Speed Gust Speed Precip Events Conditions
12:15 AM 32.0 °F 27.5 °F 26.6 °F 80% 30.39 in 10.0 mi NW 4.6 mph - N/A   Overcast
12:35 AM 30.2 °F 25.4 °F 28.4 °F 93% 30.39 in 10.0 mi WNW 4.6 mph - N/A   Overcast
12:55 AM 30.2 °F 25.4 °F 26.6 °F 86% 30.39 in 10.0 mi WNW 4.6 mph - N/A   Mostly Cloudy
1:15 AM 28.4 °F 23.3 °F 26.6 °F 93% 30.39 in 10.0 mi WNW 4.6 mph - N/A   Scattered Clouds
1:35 AM 28.4 °F 24.6 °F 26.6 °F 93% 30.40 in 10.0 mi West 3.5 mph - N/A   Scattered Clouds
1:55 AM 28.4 °F 24.6 °F 26.6 °F 93% 30.40 in 10.0 mi West 3.5 mph - N/A   Scattered Clouds
2:15 AM 26.6 °F 22.6 °F 24.8 °F 93% 30.40 in 10.0 mi WNW 3.5 mph - N/A   Clear
2:55 AM 26.6 °F 22.6 °F 24.8 °F 93% 30.40 in 10.0 mi WNW 3.5 mph - N/A   Clear
3:15 AM 26.6 °F - 23.0 °F 86% 30.40 in 10.0 mi Calm Calm - N/A   Clear
5:35 AM 23.0 °F 18.4 °F 21.2 °F 93% 30.39 in 7.0 mi South 3.5 mph - N/A   Clear
5:55 AM 21.2 °F 14.9 °F 21.2 °F 100% 30.40 in 7.0 mi South 4.6 mph - N/A   Clear
6:15 AM 21.2 °F - 19.4 °F 93% 30.40 in 7.0 mi Calm Calm - N/A   Clear
6:35 AM 21.2 °F 14.9 °F 19.4 °F 93% 30.41 in 7.0 mi South 4.6 mph - N/A   Clear
6:55 AM 21.2 °F 14.9 °F 19.4 °F 93% 30.41 in 10.0 mi South 4.6 mph - N/A   Clear
7:15 AM 23.0 °F 17.0 °F 21.2 °F 93% 30.41 in 10.0 mi South 4.6 mph - N/A   Clear
7:35 AM 23.0 °F 18.4 °F 21.2 °F 93% 30.42 in 10.0 mi South 3.5 mph - N/A   Clear
7:55 AM 23.0 °F 17.0 °F 21.2 °F 93% 30.42 in 10.0 mi South 4.6 mph - N/A   Clear
8:15 AM 23.0 °F 17.0 °F 21.2 °F 93% 30.43 in 10.0 mi South 4.6 mph - N/A   Clear
8:55 AM 26.6 °F 21.2 °F 23.0 °F 86% 30.43 in 10.0 mi South 4.6 mph - N/A   Clear
9:15 AM 28.4 °F 22.2 °F 23.0 °F 80% 30.43 in 10.0 mi South 5.8 mph - N/A   Clear
9:35 AM 30.2 °F 24.3 °F 24.8 °F 80% 30.43 in 10.0 mi SSW 5.8 mph - N/A   Clear
9:55 AM 32.0 °F 26.4 °F 23.0 °F 69% 30.43 in 10.0 mi SSW 5.8 mph - N/A   Clear
10:15 AM 33.8 °F 25.8 °F 24.8 °F 70% 30.43 in 10.0 mi SW 10.4 mph - N/A   Clear
10:55 AM 33.8 °F 27.0 °F 23.0 °F 65% 30.43 in 10.0 mi SW 8.1 mph - N/A   Clear
11:15 AM 35.6 °F 30.7 °F 23.0 °F 60% 30.42 in 10.0 mi SSW 5.8 mph - N/A   Clear
11:35 AM 37.4 °F 31.4 °F 23.0 °F 56% 30.41 in 10.0 mi SW 8.1 mph - N/A   Clear
11:55 AM 37.4 °F 32.8 °F 23.0 °F 56% 30.40 in 10.0 mi SW 5.8 mph - N/A   Clear
12:15 PM 39.2 °F 32.0 °F 23.0 °F 52% 30.39 in 10.0 mi SSW 11.5 mph - N/A   Clear
12:35 PM 39.2 °F 34.2 °F 23.0 °F 52% 30.38 in 10.0 mi SW 6.9 mph - N/A   Clear
12:55 PM 41.0 °F 36.4 °F 23.0 °F 49% 30.37 in 10.0 mi SSW 6.9 mph - N/A   Clear
1:15 PM 41.0 °F 34.7 °F 23.0 °F 49% 30.35 in 10.0 mi WSW 10.4 mph - N/A   Clear
1:35 PM 41.0 °F 34.7 °F 23.0 °F 49% 30.35 in 10.0 mi WSW 10.4 mph - N/A   Clear
1:55 PM 42.8 °F 37.0 °F 23.0 °F 46% 30.34 in 10.0 mi WSW 10.4 mph - N/A   Clear
2:15 PM 42.8 °F 38.0 °F 23.0 °F 46% 30.33 in 10.0 mi SW 8.1 mph - N/A   Clear
2:35 PM 42.8 °F 38.6 °F 23.0 °F 46% 30.33 in 10.0 mi SW 6.9 mph - N/A   Clear
2:55 PM 42.8 °F 38.0 °F 23.0 °F 46% 30.32 in 10.0 mi West 8.1 mph - N/A   Clear
3:15 PM 44.6 °F 40.2 °F 23.0 °F 43% 30.32 in 10.0 mi WSW 8.1 mph - N/A   Clear
3:35 PM 44.6 °F 40.2 °F 23.0 °F 43% 30.32 in 10.0 mi SW 8.1 mph - N/A   Clear
3:55 PM 44.6 °F 40.7 °F 23.0 °F 43% 30.32 in 10.0 mi WSW 6.9 mph - N/A   Clear
4:15 PM 42.8 °F 38.6 °F 23.0 °F 46% 30.32 in 10.0 mi SW 6.9 mph - N/A   Clear
4:35 PM 42.8 °F 39.3 °F 23.0 °F 46% 30.32 in 10.0 mi SW 5.8 mph - N/A   Clear
4:55 PM 41.0 °F 38.0 °F 23.0 °F 49% 30.32 in 10.0 mi SW 4.6 mph - N/A   Clear
5:15 PM 41.0 °F 38.0 °F 21.2 °F 45% 30.31 in 10.0 mi SW 4.6 mph - N/A   Clear
5:35 PM 39.2 °F 35.9 °F 21.2 °F 49% 30.31 in 10.0 mi SSW 4.6 mph - N/A   Clear
5:55 PM 37.4 °F 33.8 °F 21.2 °F 52% 30.32 in 10.0 mi SW 4.6 mph - N/A   Clear
6:15 PM 37.4 °F 34.9 °F 21.2 °F 52% 30.32 in 10.0 mi SW 3.5 mph - N/A   Clear
6:35 PM 37.4 °F 34.9 °F 21.2 °F 52% 30.32 in 10.0 mi SSW 3.5 mph - N/A   Clear
6:55 PM 35.6 °F 31.7 °F 21.2 °F 56% 30.32 in 10.0 mi SSW 4.6 mph - N/A   Clear
7:15 PM 33.8 °F 29.6 °F 21.2 °F 60% 30.32 in 10.0 mi South 4.6 mph - N/A   Clear
7:35 PM 33.8 °F 28.6 °F 21.2 °F 60% 30.32 in 10.0 mi South 5.8 mph - N/A   Clear
7:55 PM 32.0 °F 24.8 °F 21.2 °F 64% 30.32 in 10.0 mi South 8.1 mph - N/A   Clear
8:15 PM 32.0 °F 25.6 °F 21.2 °F 64% 30.32 in 10.0 mi South 6.9 mph - N/A   Clear
8:35 PM 32.0 °F 24.8 °F 23.0 °F 69% 30.32 in 10.0 mi South 8.1 mph - N/A   Clear
8:55 PM 32.0 °F 25.6 °F 23.0 °F 69% 30.32 in 10.0 mi South 6.9 mph - N/A   Clear
9:15 PM 32.0 °F 25.6 °F 23.0 °F 69% 30.32 in 10.0 mi South 6.9 mph - N/A   Clear
9:55 PM 32.0 °F 24.8 °F 23.0 °F 69% 30.32 in 10.0 mi South 8.1 mph - N/A   Clear
10:15 PM 32.0 °F 24.8 °F 23.0 °F 69% 30.31 in 10.0 mi South 8.1 mph - N/A   Clear
10:35 PM 32.0 °F 24.8 °F 23.0 °F 69% 30.31 in 10.0 mi South 8.1 mph - N/A   Clear
10:55 PM 32.0 °F 24.8 °F 23.0 °F 69% 30.31 in 10.0 mi South 8.1 mph - N/A   Clear
11:15 PM 32.0 °F 26.4 °F 23.0 °F 69% 30.31 in 10.0 mi SSW 5.8 mph - N/A   Clear
11:35 PM 32.0 °F 25.6 °F 23.0 °F 69% 30.30 in 10.0 mi South 6.9 mph - N/A   Clear
11:55 PM 32.0 °F 25.6 °F 23.0 °F 69% 30.30 in 10.0 mi South 6.9 mph - N/A   Clear